• In Hungary
  • List of Countries
  • For 7 days
  • Water Temperature
  • Satellite Maps
  • Weather Map
  • News
  • Weather Widgets
  • user-avatar
    Login

    Hourly Weather Sagarchin

    Today, 16 August, Thursday

    Time Temperature Precipitation Wind Pressure Humidity
    00:00 +19°C° 0 mm 2 mps 750 mmHg 63%
    01:00 +18°C° 0 mm 2 mps 750 mmHg 66%
    02:00 +19°C° 0 mm 1 mps 750 mmHg 68%
    03:00 +18°C° 0 mm 1 mps 751 mmHg 70%
    04:00 +18°C° 0 mm 1 mps 751 mmHg 72%
    05:00 +19°C° 0 mm 1 mps 751 mmHg 69%
    06:00 +19°C° 0 mm 1 mps 751 mmHg 67%
    07:00 +19°C° 0 mm 2 mps 751 mmHg 64%
    08:00 +21°C° 0 mm 2 mps 751 mmHg 58%
    09:00 +23°C° 0 mm 2 mps 752 mmHg 52%
    10:00 +25°C° 0 mm 3 mps 752 mmHg 46%
    11:00 +26°C° 0 mm 3 mps 751 mmHg 42%
    12:00 +27°C° 0 mm 3 mps 751 mmHg 39%
    13:00 +27°C° 0 mm 3 mps 751 mmHg 35%
    14:00 +28°C° 0 mm 3 mps 751 mmHg 33%
    15:00 +28°C° 0 mm 3 mps 751 mmHg 32%
    16:00 +29°C° 0 mm 3 mps 751 mmHg 30%
    17:00 +28°C° 0 mm 2 mps 750 mmHg 33%
    18:00 +27°C° 0 mm 1 mps 750 mmHg 36%
    19:00 +26°C° 0 mm 1 mps 750 mmHg 40%
    20:00 +25°C° 0 mm 1 mps 750 mmHg 41%
    21:00 +24°C° 0 mm 1 mps 750 mmHg 43%
    22:00 +23°C° 0 mm 1 mps 750 mmHg 45%
    23:00 +23°C° 0 mm 1 mps 750 mmHg 45%

    Tomorrow, 17 August, Friday

    Time Temperature Precipitation Wind Pressure Humidity
    00:00 +22°C° 0 mm 1 mps 750 mmHg 44%
    01:00 +21°C° 0 mm 2 mps 750 mmHg 44%
    02:00 +21°C° 0 mm 2 mps 749 mmHg 44%
    03:00 +21°C° 0 mm 2 mps 749 mmHg 45%
    04:00 +20°C° 0 mm 2 mps 749 mmHg 45%
    05:00 +21°C° 0 mm 2 mps 749 mmHg 44%
    06:00 +23°C° 0 mm 2 mps 749 mmHg 44%
    07:00 +24°C° 0 mm 3 mps 749 mmHg 43%
    08:00 +26°C° 0 mm 3 mps 749 mmHg 38%
    09:00 +27°C° 0 mm 3 mps 749 mmHg 33%
    10:00 +29°C° 0 mm 4 mps 749 mmHg 27%
    11:00 +30°C° 0 mm 4 mps 749 mmHg 26%
    12:00 +32°C° 0 mm 4 mps 748 mmHg 24%
    13:00 +33°C° 0 mm 4 mps 748 mmHg 23%
    14:00 +33°C° 0 mm 4 mps 748 mmHg 23%
    15:00 +33°C° 0 mm 4 mps 747 mmHg 22%
    16:00 +34°C° 0 mm 4 mps 747 mmHg 22%
    17:00 +32°C° 0 mm 4 mps 747 mmHg 28%
    18:00 +30°C° 0 mm 4 mps 747 mmHg 34%
    19:00 +28°C° 0 mm 4 mps 746 mmHg 40%
    20:00 +27°C° 0.3 mm 4 mps 746 mmHg 52%
    21:00 +25°C° 0.3 mm 5 mps 746 mmHg 63%
    22:00 +22°C° 0.3 mm 6 mps 747 mmHg 74%
    23:00 +21°C° 0 mm 6 mps 747 mmHg 76%

    Day after tomorrow, 18 August, Saturday

    Time Temperature Precipitation Wind Pressure Humidity
    00:00 +20°C° 0 mm 5 mps 746 mmHg 77%
    01:00 +19°C° 0 mm 5 mps 746 mmHg 79%
    02:00 +17°C° 0.1 mm 5 mps 746 mmHg 80%
    03:00 +17°C° 0.1 mm 5 mps 746 mmHg 81%
    04:00 +16°C° 0.1 mm 5 mps 746 mmHg 83%
    05:00 +16°C° 0.2 mm 5 mps 747 mmHg 82%
    06:00 +16°C° 0.2 mm 5 mps 747 mmHg 81%
    07:00 +16°C° 0.2 mm 5 mps 747 mmHg 80%
    08:00 +17°C° 0 mm 6 mps 747 mmHg 74%
    09:00 +19°C° 0 mm 6 mps 747 mmHg 68%
    10:00 +21°C° 0 mm 6 mps 747 mmHg 61%
    11:00 +22°C° 0 mm 6 mps 747 mmHg 55%
    12:00 +23°C° 0 mm 6 mps 747 mmHg 50%
    13:00 +24°C° 0 mm 6 mps 746 mmHg 44%
    14:00 +24°C° 0 mm 6 mps 746 mmHg 42%
    15:00 +24°C° 0 mm 6 mps 746 mmHg 40%
    16:00 +26°C° 0 mm 6 mps 746 mmHg 38%
    17:00 +25°C° 0 mm 5 mps 746 mmHg 41%
    18:00 +23°C° 0 mm 5 mps 746 mmHg 43%
    19:00 +22°C° 0 mm 5 mps 746 mmHg 45%
    20:00 +21°C° 0 mm 5 mps 747 mmHg 49%
    21:00 +20°C° 0 mm 5 mps 747 mmHg 53%
    22:00 +17°C° 0 mm 6 mps 747 mmHg 57%
    23:00 +17°C° 0 mm 5 mps 747 mmHg 60%

    19 August, Sunday

    Time Temperature Precipitation Wind Pressure Humidity
    00:00 +16°C° 0 mm 5 mps 747 mmHg 63%
    01:00 +15°C° 0 mm 4 mps 747 mmHg 66%
    02:00 +15°C° 0 mm 4 mps 747 mmHg 66%
    03:00 +14°C° 0 mm 4 mps 747 mmHg 67%
    04:00 +14°C° 0 mm 4 mps 747 mmHg 68%
    05:00 +14°C° 0 mm 4 mps 747 mmHg 66%
    06:00 +15°C° 0 mm 4 mps 747 mmHg 65%
    07:00 +15°C° 0 mm 4 mps 747 mmHg 63%
    08:00 +16°C° 0 mm 5 mps 747 mmHg 58%
    09:00 +19°C° 0 mm 5 mps 747 mmHg 52%
    10:00 +20°C° 0 mm 5 mps 747 mmHg 47%
    11:00 +21°C° 0 mm 6 mps 747 mmHg 45%
    12:00 +21°C° 0 mm 6 mps 747 mmHg 43%
    13:00 +22°C° 0 mm 6 mps 746 mmHg 40%
    14:00 +22°C° 0 mm 6 mps 747 mmHg 40%
    15:00 +22°C° 0 mm 6 mps 747 mmHg 40%
    16:00 +22°C° 0 mm 6 mps 747 mmHg 40%
    17:00 +21°C° 0 mm 6 mps 747 mmHg 43%
    18:00 +20°C° 0 mm 5 mps 747 mmHg 47%
    19:00 +20°C° 0 mm 5 mps 747 mmHg 50%
    20:00 +19°C° 0 mm 5 mps 747 mmHg 54%
    21:00 +16°C° 0 mm 5 mps 747 mmHg 58%
    22:00 +15°C° 0 mm 5 mps 748 mmHg 62%
    23:00 +15°C° 0 mm 5 mps 748 mmHg 65%

    20 August, Monday

    Time Temperature Precipitation Wind Pressure Humidity
    00:00 +14°C° 0 mm 4 mps 748 mmHg 68%
    01:00 +13°C° 0 mm 4 mps 748 mmHg 70%
    02:00 +13°C° 0 mm 4 mps 748 mmHg 73%
    03:00 +12°C° 0 mm 4 mps 748 mmHg 75%
    04:00 +11°C° 0 mm 4 mps 749 mmHg 78%
    05:00 +12°C° 0 mm 4 mps 749 mmHg 76%
    06:00 +12°C° 0 mm 5 mps 749 mmHg 74%
    07:00 +12°C° 0 mm 5 mps 749 mmHg 72%
    08:00 +13°C° 0 mm 5 mps 749 mmHg 66%
    09:00 +15°C° 0 mm 5 mps 749 mmHg 59%
    10:00 +16°C° 0 mm 5 mps 750 mmHg 53%
    11:00 +17°C° 0 mm 5 mps 750 mmHg 50%
    12:00 +19°C° 0 mm 5 mps 750 mmHg 47%
    13:00 +20°C° 0 mm 5 mps 750 mmHg 44%
    14:00 +21°C° 0 mm 5 mps 750 mmHg 42%
    15:00 +21°C° 0 mm 4 mps 750 mmHg 40%
    16:00 +22°C° 0 mm 4 mps 750 mmHg 37%
    17:00 +21°C° 0 mm 4 mps 750 mmHg 41%
    18:00 +21°C° 0 mm 4 mps 750 mmHg 44%
    19:00 +20°C° 0 mm 3 mps 750 mmHg 48%
    20:00 +19°C° 0 mm 3 mps 750 mmHg 52%
    21:00 +18°C° 0 mm 3 mps 750 mmHg 56%
    22:00 +17°C° 0 mm 3 mps 751 mmHg 61%
    23:00 +16°C° 0 mm 3 mps 751 mmHg 64%

    21 August, Tuesday

    Time Temperature Precipitation Wind Pressure Humidity
    00:00 +14°C° 0 mm 3 mps 751 mmHg 67%
    01:00 +14°C° 0 mm 3 mps 751 mmHg 71%
    02:00 +13°C° 0 mm 3 mps 751 mmHg 72%
    03:00 +13°C° 0 mm 3 mps 751 mmHg 74%
    04:00 +12°C° 0 mm 3 mps 751 mmHg 76%
    05:00 +13°C° 0 mm 3 mps 752 mmHg 73%
    06:00 +14°C° 0 mm 3 mps 752 mmHg 71%
    07:00 +14°C° 0 mm 3 mps 752 mmHg 69%
    08:00 +17°C° 0 mm 4 mps 752 mmHg 61%
    09:00 +19°C° 0 mm 4 mps 752 mmHg 53%
    10:00 +20°C° 0 mm 4 mps 752 mmHg 46%
    11:00 +21°C° 0 mm 4 mps 752 mmHg 42%
    12:00 +23°C° 0 mm 4 mps 752 mmHg 38%
    13:00 +25°C° 0 mm 4 mps 752 mmHg 34%
    14:00 +25°C° 0 mm 4 mps 752 mmHg 33%
    15:00 +26°C° 0 mm 4 mps 752 mmHg 33%
    16:00 +26°C° 0 mm 4 mps 751 mmHg 32%
    17:00 +25°C° 0 mm 3 mps 751 mmHg 35%
    18:00 +24°C° 0 mm 3 mps 751 mmHg 38%
    19:00 +23°C° 0 mm 2 mps 751 mmHg 42%
    20:00 +21°C° 0 mm 2 mps 751 mmHg 44%
    21:00 +20°C° 0 mm 2 mps 752 mmHg 47%
    22:00 +20°C° 0 mm 1 mps 752 mmHg 50%
    23:00 +19°C° 0 mm 1 mps 752 mmHg 52%
    Show more